Home   Weather   Oran   Past weeks

Flag for Algeria Past Weather in Oran, Algeria — Yesterday and Last 2 Weeks

Now
45 °F

Passing clouds.


Feels Like: 41 °F
Forecast: 44 / 49 °F
Wind: 7 mph from West

Location: Oran / Es Senia

Current Time: Jan 19, 2017 at 10:36:59 pm

Latest Report: Jan 19, 2017 at 9:00 pm


Visibility: N/A

Pressure: 29.92 "Hg

Humidity: 93%

Dew Point: 43 °F

Location of OranLocation

Past Weather in Oran — Graph

°F

Oran Temperature Yesterday

Maximum temperature yesterday: 48 °F (at 1:30 pm)
Minimum temperature yesterday: 43 °F (at 12:00 am)
Average temperature yesterday: 44 °F

High & Low Weather Summary for the Past Weeks

 TemperatureHumidityPressure
High66 °F (Jan 5, 4:00 pm)100% (Jan 5, 2:00 am)30.42 "Hg (Jan 5, 2:00 am)
Low34 °F (Jan 8, 6:30 am)41% (Jan 15, 4:00 pm)29.83 "Hg (Jan 19, 6:00 am)
Average49 °F81%30.19 "Hg
* Reported Jan 4 9:00 pm — Jan 19 9:00 pm, Oran, Weather by CustomWeather, © 2017

Note: Actual official high and low records may vary slightly from our data, if they occured in-between our weather recording intervals... More about our weather records

Advertising

Oran Weather History for the Previous 24 Hours

Scroll right to see more
 ConditionsComfort  
Time TempWeatherWind HumidityBarometerVisibility
9:00 pm
Thu, Jan 19
45 °FPassing clouds.7 mph93%29.92 "HgN/A
7:00 pm46 °FPartly cloudy.18 mph87%29.89 "HgN/A
5:00 pm48 °FBroken clouds.22 mph82%29.86 "HgN/A
4:00 pm50 °FBroken clouds.17 mph76%29.86 "HgN/A
1:30 pm54 °FScattered clouds.23 mph67%29.83 "HgN/A
11:00 am48 °FScattered clouds.20 mph66%29.86 "HgN/A
9:30 am43 °FScattered clouds.9 mph81%29.86 "HgN/A
9:00 am39 °FScattered clouds.6 mph93%29.86 "HgN/A
8:30 am37 °FScattered clouds.3 mph87%29.86 "HgN/A
8:00 am36 °FPassing clouds.2 mph93%29.83 "HgN/A
7:00 am36 °FPassing clouds.2 mph100%29.86 "HgN/A
6:30 am36 °FPassing clouds.2 mph100%29.86 "HgN/A
6:00 am36 °FPassing clouds.No wind100%29.83 "HgN/A
5:30 am36 °FPassing clouds.2 mph100%29.86 "HgN/A
5:00 am37 °FPassing clouds.2 mph93%29.86 "HgN/A
4:30 am37 °FPassing clouds.5 mph93%29.86 "HgN/A
4:00 am37 °FPassing clouds.5 mph100%29.86 "HgN/A
3:00 am41 °FPassing clouds.5 mph93%29.86 "HgN/A
2:30 am41 °FPassing clouds.7 mph87%29.86 "HgN/A
2:00 am41 °FPassing clouds.9 mph87%29.86 "HgN/A
1:30 am41 °FPassing clouds.9 mph87%29.86 "HgN/A
12:00 am43 °FPassing clouds.12 mph81%29.92 "HgN/A
11:30 pm
Wed, Jan 18
43 °FPassing clouds.14 mph81%29.92 "HgN/A
11:00 pm43 °FPassing clouds.14 mph81%29.92 "HgN/A
10:30 pm43 °FPassing clouds.9 mph87%29.92 "HgN/A
10:00 pm43 °FPassing clouds.14 mph71%29.92 "HgN/A
Weather by CustomWeather, © 2017

See weather overviewHow to use our weather pages